This is the latest recevied weather packets stored in our database for station/object KD2CRT. If no packets are shown the sender has not sent any weather packets the latest 10 day(s).
| Time | Temp. | Humidity | Pressure | Rain* | Wind** | Luminosity | Snow |
|---|---|---|---|---|---|---|---|
| 1778133595 | 11.67° C | 89% | 995.7 hPa | 3.56 mm | - | 1767 W/m² | - |
| 1778130045 | 12.78° C | 83% | 994.4 hPa | 0 mm | - | - | - |
| 1778126397 | 13.33° C | 84% | 994.9 hPa | 0 mm | - | - | - |
| 1778122846 | 13.89° C | 83% | 994.5 hPa | 0 mm | - | - | - |
| 1778119202 | 17.78° C | 88% | 994 hPa | 0.76 mm | - | - | - |
| 1778119196 | 17.78° C | 88% | 994 hPa | 0.76 mm | - | - | - |
| 1778112001 | 19.44° C | 82% | 992.7 hPa | 0 mm | - | - | - |
| 1778104791 | 18.89° C | 83% | 992.4 hPa | 0 mm | - | - | - |
| 1778097604 | 17.22° C | 88% | 992.2 hPa | 0 mm | - | - | - |
| 1778097599 | 17.22° C | 88% | 992.3 hPa | 0 mm | - | - | - |
| 1778094029 | 17.22° C | 89% | 992.8 hPa | 0 mm | - | - | - |
| 1778086837 | 17.78° C | 87% | 993.3 hPa | 1.27 mm | - | - | - |
| 1778072438 | 20° C | 70% | 994.9 hPa | 0 mm | - | - | - |
| 1778068806 | 18.89° C | 73% | 994.7 hPa | 0 mm | - | - | - |
| 1778068795 | 18.89° C | 73% | 994.6 hPa | 0 mm | - | - | - |
| 1778065250 | 17.78° C | 78% | 994.7 hPa | 0 mm | - | - | - |
| 1778058043 | 17.78° C | 79% | 994.4 hPa | 0 mm | - | - | - |
| 1778054401 | 18.33° C | 76% | 994.6 hPa | 0 mm | - | - | - |
| 1778050849 | 18.89° C | 74% | 994.8 hPa | 0 mm | - | - | - |
| 1778047209 | 19.44° C | 70% | 995.1 hPa | 0 mm | - | - | - |
| 1778047206 | 19.44° C | 70% | 995.1 hPa | 0 mm | - | - | - |
| 1778043647 | 19.44° C | 67% | 995.6 hPa | 0 mm | - | - | - |
| 1778040008 | 20.56° C | 63% | 995.5 hPa | 0 mm | - | - | - |
| 1778040003 | 20.56° C | 63% | 995.5 hPa | 0 mm | - | - | - |
| 1778036407 | 20.56° C | 60% | 995.4 hPa | 0 mm | - | - | - |
* Rain latest hour (hover to see other rain measurements)
** Current wind speed in m/s (hover to see current wind gust speed)